Hourly Data Report for September 11, 2020

BRIER ISLAND
NOVA SCOTIA
Current Station Operator: ECCC - MSC

44°17'09.000" N
66°20'48.000" W
15.80 m
8200604
71988
WVU

Download Data

Hourly Data (September 2020)
Hourly Data Report for September 11, 2020
TIME Temp Definition
°C
Dew Point Definition
°C
Rel Hum Definition
%
Wind Dir Definition
10's deg

Wind Spd Definition
km/h
Visibility Definition
km
Stn Press Definition
kPa
Hmdx Definition


Wind Chill Definition


Weather Definition


00:00 20.0 20.0 100 20 23   101.47 28   LegendNANA
01:00 14.7 14.7 100 32 34   101.54     LegendNANA
02:00 13.7 13.7 100 32 24   101.54     LegendNANA
03:00 13.6 13.6 100 32 18   101.57     LegendNANA
04:00 13.5 13.5 100 32 28   101.57     LegendNANA
05:00 13.6 13.6 100 34 33   101.57     LegendNANA
06:00 13.3 13.3 100 35 30   101.59     LegendNANA
07:00 13.2 13.0 98 34 32   101.68     LegendNANA
08:00 12.9 12.2 96 34 33   101.75     LegendNANA
09:00 12.5 12.5 100 34 35   101.80     LegendNANA
10:00 12.6 11.7 94 34 34   101.84     LegendNANA
11:00 12.2 11.3 94 34 37   101.86     LegendNANA
12:00 12.6 11.3 92 35 35   101.89     LegendNANA
13:00 13.1 11.2 88 35 29   101.92     LegendNANA
14:00 13.3 11.1 87 35 32   101.94     LegendNANA
15:00 13.7 11.2 85 35 29   101.98     LegendNANA
16:00 13.7 11.1 84 35 24   102.00     LegendNANA
17:00 13.6 10.9 84 36 15   102.03     LegendNANA
18:00 13.1 10.8 86 35 15   102.09     LegendNANA
19:00 12.2 11.4 95 33 10   102.16     LegendNANA
20:00 12.1 11.1 94 33 9   102.23     LegendNANA
21:00 11.6 11.1 97 36 5   102.27     LegendNANA
22:00 11.3 11.0 98 36 3   102.29     LegendNANA
23:00 11.3 11.1 99 31 4   102.34     LegendNANA

Notes on Data Quality.

Legend

  • E = Estimated
  • M = Missing
  • NA = Not Available*
  • [empty] = Indicates an unobserved value
Date modified: